Temperature
9 10 10 10 11 11 11 12 12 12 12 12 11 11 11 11 11 11 11 11 10 10 10 10 10 10 10 9 9 9 9 9 9 9 8 8 8 8 8 8 8 8 8
9 9 10 10 10 11 11 11 11 11 11 11 11 11 11 11 11 11 11 10 10 10 10 10 10 9 9 9 9 9 9 8 8 8 7 7 8 8 8 8 8 8 8
8 8 9 9 10 10 10 11 11 11 11 11 11 11 11 11 10 10 10 10 10 10 10 9 9 9 9 9 9 8 8 8 8 7 7 7 7 7 7 7 7 7 7
8 8 8 9 9 9 10 10 10 10 10 11 10 10 10 10 10 10 10 10 10 9 9 9 9 9 9 9 8 8 8 8 7 7 7 7 7 6 6 7 7 7 7
8 8 8 8 9 9 9 9 9 10 10 10 10 10 10 10 10 10 10 9 9 9 9 9 9 9 8 8 8 8 8 7 7 7 7 7 7 6 6 6 6 6 6
7 7 7 8 8 8 9 9 9 9 9 10 10 10 10 9 9 9 9 9 9 9 9 9 9 8 8 8 8 8 7 7 7 7 7 6 6 6 6 6 6 6 6
7 6 6 7 7 8 8 8 8 9 9 9 9 9 9 9 9 9 9 9 9 9 9 9 8 8 8 8 7 7 7 7 7 6 6 6 6 6 6 5 5 5 5
6 6 6 7 7 7 7 8 8 8 8 8 8 8 8 8 8 8 8 8 8 9 9 8 8 8 8 7 7 7 7 6 6 6 6 6 6 6 5 5 5 4 4
5 5 6 6 7 7 7 7 7 7 7 7 7 7 7 8 8 8 8 8 8 8 8 8 8 8 7 7 7 7 6 6 6 6 6 6 5 5 5 5 5 4 4
5 5 5 6 6 6 6 6 6 6 7 7 6 7 7 7 7 8 8 8 8 8 8 8 8 7 7 7 7 6 6 6 6 6 5 5 5 5 5 5 5 4 4
4 4 5 5 5 6 6 6 6 6 6 6 6 6 6 7 7 7 7 7 7 7 7 7 7 7 7 7 6 6 6 6 6 5 5 5 5 5 5 4 4 4 4
3 4 4 4 5 5 5 5 5 5 5 5 5 5 6 6 6 7 7 7 7 7 7 7 7 7 7 6 6 6 6 5 5 5 5 5 5 5 4 4 4 4 4
3 3 3 4 4 4 4 4 4 4 4 4 5 5 5 6 6 6 6 6 6 6 6 6 6 6 6 6 6 6 5 5 5 5 5 5 5 5 4 4 4 4 4
3 3 3 3 3 4 4 4 4 4 4 4 4 4 5 5 6 6 6 6 6 6 6 6 6 6 6 6 5 5 5 5 5 5 5 4 4 4 4 4 4 4 4
2 2 2 2 3 3 3 3 4 4 4 4 4 4 4 5 5 5 5 5 5 5 5 5 5 5 5 5 5 5 5 4 4 4 4 4 4 4 4 4 4 4 4
2 2 2 2 2 3 3 3 3 3 3 3 3 4 4 4 4 5 5 5 5 5 5 5 5 5 5 5 5 4 4 4 4 4 4 4 4 4 4 4 4 4 3
1 2 2 2 2 2 2 3 3 3 3 3 3 3 3 4 4 4 4 4 4 4 4 4 4 4 4 4 4 4 4 4 4 4 4 4 4 4 4 4 4 3 3
1 1 1 2 2 2 2 2 2 2 2 3 3 3 3 3 3 4 4 4 4 4 4 4 4 4 4 4 4 4 4 3 3 3 3 3 3 4 4 3 3 3 3
1 1 1 2 2 2 2 2 2 2 2 2 2 3 3 3 3 3 3 3 3 3 3 3 3 3 4 4 3 3 3 3 3 3 3 3 3 3 3 3 3 3 3
1 1 1 1 1 1 1 1 1 2 2 2 2 2 2 2 2 3 3 3 3 3 3 3 3 3 3 3 3 3 3 3 3 3 3 3 3 3 3 3 3 2 2
0 0 1 1 1 1 1 1 1 1 1 1 1 2 2 2 2 2 2 2 2 2 2 2 2 2 2 3 2 2 2 2 2 2 2 2 2 2 2 2 2 2 2
-0 -0 0 0 0 1 1 1 1 1 1 1 1 1 1 1 2 2 2 2 2 2 2 2 2 2 2 2 2 2 2 2 2 2 2 2 2 2 2 2 2 2 2
-1 -1 -1 -0 0 0 -0 0 0 0 0 0 1 1 1 1 1 1 1 1 1 1 1 1 1 2 2 2 2 2 2 2 1 1 2 2 2 2 2 2 1 1 1
-2 -1 -1 -1 -0 -0 -1 -1 -1 -1 -0 -0 0 0 1 1 1 1 1 1 1 1 1 1 1 1 1 1 1 1 1 1 1 1 1 1 1 1 1 1 1 1 1
-2 -2 -2 -1 -1 -1 -1 -1 -1 -1 -1 -1 -0 -0 -0 0 0 0 0 0 0 0 0 1 1 1 1 1 1 1 1 1 1 1 1 1 1 1 1 1 1 1 0
-3 -2 -2 -2 -2 -2 -1 -2 -2 -2 -1 -1 -1 -1 -1 -1 -0 -0 -0 -0 -0 -0 0 0 0 0 0 1 1 1 1 1 1 1 0 0 0 0 0 1 0 0 0
Wind_Speed
3 3 3 3 3 2 3 3 4 5 4 4 4 3 3 3 3 2 3 3 3 3 3 2 2 2 2 1 1 1 1 1 1 1 2 2 2 2 2 3 3 4 5
3 2 2 2 3 3 3 3 4 4 5 4 4 3 2 2 2 2 2 3 4 4 3 3 2 2 2 2 1 1 1 1 1 1 1 2 2 2 3 3 4 5 4
5 4 3 3 2 2 3 3 3 4 4 4 3 2 2 1 2 2 3 3 3 4 3 3 3 3 2 2 2 2 2 2 2 2 2 2 2 4 3 3 4 4 5
4 4 4 3 3 2 2 2 3 3 3 4 4 5 4 4 4 3 3 3 3 3 3 3 3 3 3 3 3 3 3 3 2 2 3 3 3 3 3 3 4 5 5
4 4 3 3 2 1 1 2 2 2 3 3 5 5 4 4 3 3 3 3 3 3 2 3 3 3 3 3 3 3 4 4 4 3 2 3 3 4 4 5 5 5 5
4 3 2 2 2 1 1 1 1 2 2 3 4 5 4 4 3 3 3 3 2 2 2 2 2 3 3 3 3 4 4 4 4 3 3 3 3 3 4 5 6 6 5
4 3 3 2 2 1 1 1 1 1 2 3 3 4 4 4 4 4 3 3 2 2 3 2 3 3 3 3 3 3 4 4 4 4 4 4 4 3 4 4 5 6 6
3 3 3 2 2 1 1 0 0 1 1 2 3 3 3 3 3 4 3 3 3 3 3 3 3 3 3 2 3 3 3 3 4 4 4 3 4 3 3 4 4 5 5
1 1 2 2 1 1 1 1 1 1 1 1 2 2 3 3 3 3 3 2 2 2 2 3 4 3 3 3 3 3 3 3 4 4 4 4 3 3 3 4 4 4 5
1 1 1 1 1 1 1 1 0 1 0 1 1 2 2 2 3 2 2 2 2 1 2 3 3 3 3 3 3 3 3 3 3 3 4 4 3 3 3 3 4 4 5
1 1 1 1 1 1 2 1 0 0 0 1 1 1 1 2 2 2 2 2 2 2 2 2 3 3 3 3 3 3 3 3 3 3 4 4 4 3 3 3 4 4 4
2 1 1 2 2 2 2 1 1 1 1 1 1 1 1 1 2 2 2 2 2 2 2 2 2 3 3 3 3 3 3 4 4 3 4 4 3 4 4 3 4 4 4
2 2 2 2 2 2 2 2 1 1 2 1 1 1 1 1 1 1 1 1 1 2 2 2 2 3 3 3 4 4 4 4 4 4 4 4 4 4 4 4 4 3 3
2 2 2 2 2 2 2 2 2 2 2 1 1 1 1 1 1 1 1 1 1 2 2 2 2 3 3 3 3 4 4 3 3 4 4 4 4 4 4 4 4 3 3
2 2 2 3 3 2 2 2 2 2 2 1 1 2 2 1 1 1 1 1 1 1 1 2 2 2 2 3 3 3 3 3 3 3 3 3 4 4 4 3 3 3 2
2 3 3 3 3 3 2 2 2 3 2 1 2 2 1 1 1 0 1 1 1 1 1 2 2 2 2 2 3 2 3 3 3 3 3 3 3 3 4 3 3 2 2
3 3 3 3 3 3 3 3 3 2 2 2 2 2 1 1 1 1 1 1 1 1 2 2 2 2 2 2 3 3 3 3 3 3 3 2 2 3 2 2 2 2 4
4 4 4 4 4 3 3 2 2 2 2 2 2 2 1 1 1 1 1 1 1 1 1 2 2 2 2 2 2 2 3 2 2 3 3 3 2 2 1 1 1 2 3
5 4 4 4 4 3 3 2 2 2 1 2 2 2 2 1 1 1 2 1 1 1 2 2 2 2 2 2 2 1 1 1 2 2 2 2 2 1 1 0 0 1 2
4 4 4 3 3 3 2 2 2 2 2 2 3 3 2 2 2 2 2 1 2 2 1 1 2 2 2 1 1 1 1 2 1 1 1 1 1 1 1 1 1 0 1
4 4 3 3 3 3 2 2 2 3 3 3 3 2 2 2 2 1 1 1 1 1 1 1 1 1 2 1 1 1 1 2 2 1 1 1 1 1 1 1 0 0 0
4 4 3 3 3 2 2 2 3 3 3 3 2 2 2 1 1 1 1 1 1 0 0 1 1 1 1 1 1 1 1 1 2 1 1 0 1 1 2 1 2 3 2
4 4 3 3 3 3 2 3 3 3 3 2 2 2 2 1 1 1 0 0 0 0 0 1 1 2 2 1 1 0 1 0 1 1 1 1 2 2 2 2 3 2 1
4 4 3 3 3 3 3 3 3 3 2 2 2 1 1 1 1 1 1 0 1 1 1 1 1 1 1 1 1 0 0 0 0 0 2 3 3 2 2 2 1 1 1
4 3 3 3 4 4 4 4 3 2 2 2 1 1 1 1 0 1 1 1 1 1 1 1 1 1 2 2 1 0 0 1 1 1 1 1 1 1 1 1 1 1 1
4 4 4 4 4 4 4 4 3 3 2 2 1 1 1 1 0 0 1 3 3 3 3 2 2 2 2 1 0 0 1 2 3 2 1 1 1 1 0 0 1 1 1
Wind_Direction
213 197 197 191 185 175 180 182 185 181 174 173 179 184 192 191 191 195 193 191 196 200 202 205 202 215 222 234 227 247 287 342 340 323 318 299 276 278 292 299 302 313 319
205 192 186 181 186 181 183 190 188 187 186 190 191 200 192 200 196 190 200 206 203 200 204 210 210 217 226 226 220 212 246 302 298 297 307 306 279 276 297 303 306 310 318
211 197 192 189 191 192 193 193 190 189 191 185 178 162 158 168 182 195 203 213 209 205 209 213 213 216 222 225 224 218 233 240 268 276 272 275 277 306 279 296 302 311 316
212 194 191 191 196 202 200 194 186 187 184 183 186 188 196 205 211 212 204 205 206 205 207 215 216 219 224 228 229 228 238 228 241 252 262 276 280 279 288 286 303 314 318
206 194 190 188 184 172 180 190 183 184 185 190 194 202 214 217 209 205 204 201 200 205 204 212 216 220 229 232 234 234 236 234 242 246 254 267 274 269 271 291 306 314 319
197 188 173 160 141 110 110 138 173 183 191 196 203 212 218 214 200 203 207 206 205 206 200 218 227 229 231 232 235 239 242 244 250 256 254 261 268 270 275 285 298 305 310
182 173 160 156 138 110 99 115 166 188 203 203 210 219 224 218 213 212 213 212 212 215 212 221 229 230 234 234 235 238 247 251 252 255 259 263 268 274 275 279 292 300 308
179 177 172 164 153 133 110 115 183 205 208 211 221 227 228 224 223 221 218 218 220 228 224 223 230 231 233 234 232 233 241 246 251 260 266 270 272 271 270 272 281 294 305
147 159 157 151 142 142 144 170 205 222 223 224 227 231 231 229 226 220 218 220 232 240 229 228 222 223 224 232 233 235 242 248 251 259 265 271 275 272 276 276 274 277 294
72 91 99 93 107 116 116 136 178 222 250 244 231 239 238 232 226 214 208 213 216 225 226 227 223 219 222 229 230 232 241 246 254 264 269 274 278 278 276 275 275 276 283
69 81 69 64 63 78 81 70 42 16 1 290 258 242 241 235 218 211 209 210 212 217 222 224 231 225 223 229 231 234 235 242 255 262 264 273 280 280 281 279 277 278 282
52 69 65 58 54 55 60 55 14 349 334 315 287 270 246 221 213 208 208 211 212 217 222 225 233 238 231 226 229 234 233 239 249 258 262 270 278 278 277 274 274 274 278
46 50 51 45 37 29 26 26 5 345 337 324 300 294 279 251 250 231 227 230 228 229 231 230 234 244 243 234 234 234 234 241 247 254 260 266 269 272 278 275 274 278 280
41 29 20 18 19 12 8 9 1 349 341 334 313 298 295 290 300 301 248 241 242 242 245 243 243 246 248 244 244 232 233 243 251 256 259 264 264 268 273 274 278 282 283
14 6 354 350 354 356 355 354 350 348 340 330 318 307 304 302 313 331 331 275 256 254 251 250 246 245 248 249 254 237 241 243 249 256 260 265 278 289 288 286 284 284 287
333 336 337 337 335 335 337 336 336 336 329 327 323 317 302 301 306 314 326 334 281 256 246 245 245 247 257 281 270 256 247 242 245 254 262 266 266 283 295 302 317 310 275
316 321 321 315 314 316 313 311 315 323 323 326 328 330 301 287 292 286 283 294 300 273 255 258 255 259 272 280 271 253 250 246 246 247 251 263 276 278 277 299 338 344 336
311 314 315 312 313 314 312 312 310 310 321 333 337 332 319 293 286 273 273 281 286 287 278 270 272 272 272 275 271 253 242 251 259 256 255 257 269 284 291 309 343 350 351
311 308 308 305 305 310 317 313 308 307 314 325 323 315 305 287 270 269 270 280 283 290 295 284 274 273 274 267 267 266 237 237 263 272 270 262 262 310 357 101 34 7 7
322 318 313 308 306 316 319 307 306 307 310 311 308 302 290 275 263 263 266 279 282 287 296 289 284 276 275 277 262 260 228 227 247 270 276 289 305 341 355 222 201 245 338
325 324 315 309 308 312 304 292 300 308 314 311 307 303 294 280 275 271 266 266 276 288 297 302 305 293 295 281 249 267 240 227 227 236 254 275 345 14 19 345 263 8 23
327 328 321 321 320 313 298 294 303 313 316 313 310 308 305 300 287 277 284 265 244 245 312 325 332 329 318 310 271 285 291 261 206 206 223 199 76 68 63 63 57 72 74
322 324 320 323 325 315 296 290 307 315 316 314 312 322 333 330 317 298 277 259 242 234 281 292 314 331 328 326 357 1 345 347 205 185 139 101 100 98 94 69 72 84 78
319 320 316 317 319 316 309 304 309 309 306 304 309 320 337 344 342 347 333 283 254 259 277 291 298 311 317 325 329 313 227 146 140 134 106 97 97 96 76 83 84 52 52
314 310 305 303 310 317 316 317 316 304 293 290 291 301 309 308 344 11 0 317 315 304 279 279 284 277 282 301 323 301 205 203 172 129 103 95 98 98 68 59 51 39 40
310 310 307 305 308 312 313 317 313 297 283 274 272 279 280 283 291 359 23 24 15 23 13 351 322 308 319 344 354 79 83 105 118 115 133 146 153 167 154 88 37 8 356
Height
1495 1496 1496 1498 1499 1500 1502 1503 1505 1507 1508 1510 1511 1512 1514 1515 1515 1516 1516 1516 1516 1517 1517 1516 1516 1516 1516 1515 1515 1514 1514 1513 1512 1511 1510 1509 1508 1507 1506 1504 1503 1501 1499
1492 1492 1494 1495 1496 1497 1499 1500 1502 1504 1505 1507 1508 1510 1511 1512 1513 1513 1514 1514 1514 1514 1514 1514 1514 1513 1513 1513 1513 1512 1511 1511 1511 1510 1509 1508 1508 1506 1504 1502 1500 1499 1497
1490 1490 1491 1492 1493 1495 1496 1497 1499 1501 1502 1504 1506 1507 1508 1509 1510 1510 1511 1511 1512 1512 1512 1512 1511 1511 1511 1511 1510 1510 1510 1509 1509 1509 1509 1508 1506 1504 1502 1500 1499 1497 1494
1488 1488 1489 1490 1491 1492 1494 1495 1496 1498 1499 1501 1502 1504 1505 1506 1507 1508 1508 1509 1509 1509 1509 1509 1509 1509 1509 1508 1508 1508 1508 1507 1507 1506 1506 1506 1505 1503 1500 1499 1497 1495 1492
1485 1486 1487 1488 1489 1490 1491 1493 1494 1495 1496 1498 1499 1501 1502 1503 1504 1505 1505 1506 1506 1507 1507 1507 1507 1506 1506 1506 1505 1505 1505 1505 1505 1504 1503 1503 1502 1501 1499 1496 1494 1493 1491
1483 1484 1485 1486 1487 1488 1489 1490 1491 1492 1493 1495 1496 1497 1499 1500 1501 1502 1502 1503 1504 1504 1503 1504 1504 1504 1504 1503 1503 1503 1502 1502 1502 1502 1501 1500 1499 1498 1497 1495 1492 1490 1488
1481 1482 1483 1484 1485 1485 1486 1488 1488 1489 1491 1492 1493 1494 1495 1497 1498 1499 1499 1500 1501 1501 1501 1501 1501 1501 1501 1501 1501 1500 1500 1500 1500 1499 1498 1498 1497 1496 1495 1493 1490 1488 1486
1480 1481 1482 1483 1483 1484 1485 1485 1486 1487 1488 1489 1490 1491 1492 1493 1494 1496 1496 1497 1498 1498 1498 1499 1499 1499 1499 1498 1498 1498 1497 1497 1497 1496 1496 1495 1494 1493 1492 1491 1489 1486 1484
1479 1479 1480 1481 1482 1483 1483 1484 1484 1485 1486 1486 1487 1488 1489 1490 1491 1492 1493 1494 1495 1495 1496 1496 1496 1496 1496 1496 1495 1495 1495 1494 1494 1494 1493 1492 1491 1490 1489 1488 1487 1486 1482
1478 1478 1479 1480 1481 1481 1482 1483 1483 1483 1484 1484 1485 1486 1487 1488 1488 1490 1490 1491 1492 1492 1493 1493 1493 1493 1493 1493 1493 1493 1492 1492 1492 1491 1490 1489 1488 1487 1486 1485 1484 1483 1481
1477 1478 1478 1479 1479 1480 1480 1481 1481 1482 1482 1482 1483 1483 1484 1485 1486 1487 1488 1488 1489 1489 1489 1490 1490 1490 1490 1490 1490 1490 1490 1489 1489 1488 1487 1487 1486 1484 1483 1482 1481 1480 1479
1477 1477 1477 1478 1478 1478 1479 1479 1480 1480 1480 1480 1481 1481 1482 1482 1483 1484 1485 1486 1486 1486 1487 1487 1487 1487 1487 1488 1488 1487 1487 1486 1486 1485 1485 1484 1483 1482 1481 1479 1478 1477 1476
1477 1476 1476 1477 1477 1477 1478 1478 1478 1479 1479 1479 1479 1479 1480 1480 1480 1481 1482 1483 1483 1483 1484 1484 1484 1484 1484 1485 1485 1485 1484 1484 1483 1482 1482 1481 1480 1479 1478 1477 1476 1475 1474
1477 1476 1476 1476 1476 1476 1476 1477 1477 1477 1477 1477 1477 1477 1478 1478 1478 1479 1479 1480 1480 1480 1481 1481 1481 1481 1481 1482 1482 1482 1481 1481 1480 1479 1479 1478 1477 1477 1476 1475 1474 1473 1471
1476 1475 1475 1475 1475 1475 1475 1475 1475 1475 1475 1475 1475 1475 1476 1476 1476 1476 1477 1477 1478 1478 1478 1478 1478 1478 1478 1479 1479 1479 1478 1478 1477 1477 1476 1475 1475 1475 1474 1473 1472 1471 1469
1475 1475 1474 1474 1473 1473 1473 1473 1473 1473 1474 1474 1474 1473 1474 1474 1474 1474 1475 1475 1475 1475 1475 1475 1475 1475 1475 1476 1476 1476 1475 1475 1474 1474 1473 1473 1473 1472 1472 1471 1470 1469 1468
1475 1474 1473 1473 1472 1472 1472 1471 1471 1472 1472 1472 1472 1471 1471 1471 1472 1472 1472 1472 1473 1473 1473 1473 1472 1472 1472 1473 1473 1473 1472 1472 1472 1471 1471 1471 1470 1470 1469 1469 1468 1467 1466
1473 1473 1472 1471 1471 1471 1470 1470 1470 1470 1470 1470 1470 1469 1469 1469 1470 1470 1470 1470 1470 1470 1470 1470 1470 1470 1470 1470 1470 1470 1470 1469 1469 1469 1469 1468 1468 1468 1467 1466 1466 1465 1464
1472 1471 1470 1469 1469 1469 1468 1468 1467 1468 1467 1468 1468 1467 1467 1467 1467 1468 1468 1468 1468 1468 1468 1468 1467 1467 1467 1467 1467 1467 1467 1467 1466 1466 1466 1466 1466 1466 1465 1464 1463 1463 1462
1470 1469 1468 1467 1467 1466 1466 1466 1465 1465 1465 1465 1465 1465 1465 1465 1465 1465 1466 1466 1466 1465 1465 1465 1465 1465 1464 1464 1464 1464 1464 1464 1464 1464 1463 1463 1463 1463 1463 1462 1462 1461 1460
1468 1467 1466 1465 1465 1465 1464 1464 1463 1463 1463 1463 1463 1463 1463 1463 1463 1463 1463 1463 1463 1463 1463 1463 1463 1462 1462 1462 1462 1462 1462 1462 1461 1461 1461 1461 1461 1461 1461 1461 1460 1460 1459
1466 1465 1464 1464 1463 1463 1462 1462 1461 1461 1461 1460 1460 1460 1460 1460 1461 1461 1461 1461 1461 1461 1461 1461 1460 1460 1460 1460 1459 1460 1460 1460 1459 1459 1459 1459 1459 1459 1459 1459 1459 1459 1458
1464 1463 1462 1462 1461 1461 1461 1460 1459 1459 1458 1458 1458 1458 1458 1458 1458 1458 1458 1459 1459 1459 1459 1459 1458 1458 1458 1457 1457 1457 1457 1457 1457 1457 1457 1458 1458 1458 1458 1458 1457 1457 1456
1462 1461 1461 1460 1459 1459 1458 1458 1457 1457 1456 1456 1456 1456 1456 1456 1456 1456 1456 1456 1456 1456 1456 1456 1456 1456 1456 1455 1455 1455 1455 1455 1455 1455 1455 1456 1456 1456 1456 1456 1456 1455 1455
1460 1459 1459 1458 1457 1456 1456 1455 1455 1454 1454 1454 1454 1454 1454 1453 1453 1453 1454 1454 1454 1454 1454 1454 1454 1453 1453 1453 1453 1453 1453 1453 1453 1453 1453 1454 1454 1454 1454 1454 1454 1454 1454
1458 1457 1456 1455 1455 1454 1453 1453 1452 1452 1452 1451 1451 1451 1451 1451 1451 1451 1451 1451 1451 1451 1452 1452 1452 1451 1452 1451 1451 1451 1452 1452 1452 1452 1451 1452 1452 1452 1452 1452 1452 1452 1452